Preview of NWS' New Version of Forecast
This preview is not operational and should not be used for support decisions.

Regional Weather Roundup (RWR)

Issued by National Weather Service (NWS)

                            
000
ASUS43 KLSX 220507
RWRMO 

WEATHER SUMMARY FOR MISSOURI
NATIONAL WEATHER SERVICE SPRINGFIELD MO
1200 AM CDT WED MAY 22 2019

NOTE: "FAIR" INDICATES FEW OR NO CLOUDS BELOW 12,000 FEET WITH NO
       SIGNIFICANT WEATHER AND/OR OBSTRUCTIONS TO VISIBILITY.
       CURRENT SKY AND/OR WEATHER CONDITIONS ARE NOT AVAILABLE FOR
       CHILLICOTHE AND FARMINGTON.

MOZ001>031-035>038-043-044-053-054-220600-
...NORTHERN AND WESTERN MISSOURI...
  
CITY           SKY/WX    TMP DP  RH WIND       PRES   REMARKS
KANSAS CTY INT PTCLDY    62  56  80 S18G31    29.49R                  
KANSAS C DTWN  CLEAR     65  55  70 S17G30    29.49R                  
LEE'S SUMMIT   CLEAR     61  54  77 S20G32    29.52R                  
ST JOSEPH      MOCLDY    63  58  83 S21G33    29.44R                  
CHILLICOTHE      N/A     60  55  83 SE9G21    29.55F                  
KIRKSVILLE     PTCLDY    57  56  96 SE10      29.63R                  
     
$$
MOZ066>068-077>081-088>096-101>105-220600-
...SOUTHWEST MISSOURI...
  
CITY           SKY/WX    TMP DP  RH WIND       PRES   REMARKS
SPRINGFIELD    CLEAR     57  52  83 S15       29.66R                  
JOPLIN         CLEAR     61  55  81 S16       29.60S                  
BRANSON        CLOUDY    55  54  94 SE10      29.72R                  
               
$$
MOZ032>034-039>042-045>050-055>058-069>072-220600-
...CENTRAL MISSOURI...  
  
CITY           SKY/WX    TMP DP  RH WIND       PRES   REMARKS
COLUMBIA       CLEAR     56  53  90 SE12      29.67R                  
JEFFERSON CITY CLEAR     59  53  80 E8        29.68R                  
ROLLA          CLOUDY    58  54  86 S10       29.71S                  
SEDALIA        CLEAR     56  52  86 SE14      29.62S                  
WHITEMAN AFB   CLEAR     60  56  87 S14G22    29.54S                  
WARRENSBURG    PTCLDY    59  54  82 S16G23    29.56F                  
OSAGE BEACH    CLEAR     56  54  93 SE8       29.68S                  
               
$$
MOZ051-052-059>065-220600-
...EAST CENTRAL MISSOURI...
  
CITY           SKY/WX    TMP DP  RH WIND       PRES   REMARKS
ST LOUIS INTL  CLOUDY    62  58  86 SE12      29.75R                  
SPIRIT OF STL  MOCLDY    61  59  93 E5        29.72F                  
ST CHARLES     CLOUDY    62  59  90 SE9       29.73R                  
                   
$$
MOZ072>076-082>087-097>100-106>115-220600-
...SOUTH CENTRAL AND SOUTHEAST MISSOURI...
  
CITY           SKY/WX    TMP DP  RH WIND       PRES   REMARKS
CAPE GIRARDEAU CLOUDY    65  59  81 W8        29.83R                  
FARMINGTON     CLOUDY    59  57  93 SW9       29.78F                  
POPLAR BLUFF   RAIN      61  61 100 SW10      29.80F FOG              
WEST PLAINS    CLOUDY    57  54  89 SE5       29.77R                  
                                       
$$